Location: Centerville
(32.8776°N, 96.6203°W)
Time: 12:00:08
(UTC+00:00)

Meteor 2-15 - Pass Details

Date: 17 June 2021
Orbit: 936 x 956 km, 82.5° (Epoch: 31 July)

Event Time Altitude Azimuth Distance (km) Brightness Sun altitude
Rises 08:23:20 0° 355° (N) 3,633 8.3 -27.3°
Reaches altitude 10° 08:25:51 10° 357° (N) 2,682 7.5 -27.0°
Maximum altitude 08:32:00 78° 84° (E) 973 4.4 -26.4°
Enters shadow 08:33:35 52° 157° (SSE) 1,167 4.6 -26.2°
